SM7SJR-13 Weather Reports


Display with metric or nautical units.
time (UTC)temp
F
wind
direction
speed
MPH
gust
MPH
rain 1hr
in
rain 24hr
in
rain mn
in
humidity
%
barometer
mb
20260508153004 53 22 7.0 14.0 0.00 0.00 0.00 38 1023.8
20260508151504 54 43 9.0 15.0 0.00 0.00 0.00 43 1023.9
20260508144503 55 33 5.0 15.0 0.00 0.00 0.00 43 1023.9
20260508143004 55 47 10.0 15.0 0.00 0.00 0.00 41 1024.0
20260508134504 55 42 6.0 12.0 0.00 0.00 0.00 45 1024.3
20260508133004 55 48 6.0 13.0 0.00 0.00 0.00 44 1024.3
20260508131504 55 37 7.0 16.0 0.00 0.00 0.00 40 1024.3
20260508124503 59 34 9.0 13.0 0.00 0.00 0.00 38 1024.2
20260508123004 58 35 9.0 14.0 0.00 0.00 0.00 35 1024.2
20260508121504 58 12 8.0 14.0 0.00 0.00 0.00 39 1024.2
20260508120003 58 48 9.0 14.0 0.00 0.00 0.00 39 1024.2
20260508114503 58 11 7.0 12.0 0.00 0.00 0.00 39 1024.3
20260508113005 58 39 5.0 14.0 0.00 0.00 0.00 39 1024.1
20260508111504 58 35 7.0 14.0 0.00 0.00 0.00 38 1024.1
20260508104504 58 72 7.0 16.0 0.00 0.00 0.00 37 1024.1
20260508103004 58 59 9.0 14.0 0.00 0.00 0.00 36 1024.2
20260508101504 57 52 6.0 15.0 0.00 0.00 0.00 36 1024.2
20260508100004 57 59 9.0 14.0 0.00 0.00 0.00 36 1024.2
20260508094505 57 54 9.0 16.0 0.00 0.00 0.00 34 1024.3
20260508093003 57 35 3.0 12.0 0.00 0.00 0.00 36 1024.3
20260508090004 57 79 7.0 12.0 0.00 0.00 0.00 35 1024.3
20260508084504 56 67 9.0 16.0 0.00 0.00 0.00 36 1024.3
20260508081504 56 66 10.0 15.0 0.00 0.00 0.00 33 1024.3
20260508080004 55 49 6.0 14.0 0.00 0.00 0.00 33 1024.2
20260508074503 55 98 5.0 13.0 0.00 0.00 0.00 33 1024.1
20260508073005 54 59 9.0 14.0 0.00 0.00 0.00 32 1024.2
20260508071503 54 63 10.0 13.0 0.00 0.00 0.00 32 1024.0
20260508070005 53 62 7.0 13.0 0.00 0.00 0.00 34 1023.8
20260508064504 53 72 7.0 13.0 0.00 0.00 0.00 34 1023.6
20260508063004 52 73 1.0 9.0 0.00 0.00 0.00 41 1023.6
20260508054503 48 117 0.0 0.0 0.00 0.00 0.00 77 1023.0
20260508053004 44 117 0.0 0.0 0.00 0.00 0.00 84 1023.0
20260508051504 40 117 0.0 0.0 0.00 0.00 0.00 89 1023.0
20260508050004 37 117 0.0 0.0 0.00 0.00 0.00 91 1022.8
20260508044504 33 117 0.0 0.0 0.00 0.00 0.00 94 1022.8
20260508043004 31 117 0.0 0.0 0.00 0.00 0.00 93 1022.2
20260508041505 29 117 0.0 0.0 0.00 0.00 0.00 94 1022.2
20260508040004 27 117 0.0 0.0 0.00 0.00 0.00 94 1022.2
20260508034503 26 117 0.0 0.0 0.00 0.00 0.00 94 1022.2
20260508033005 25 117 0.0 0.0 0.00 0.00 0.00 93 1022.0
20260508031503 25 117 0.0 0.0 0.00 0.00 0.00 93 1022.0
20260508024504 25 117 0.0 0.0 0.00 0.00 0.00 93 1021.7
20260508023004 25 117 0.0 0.0 0.00 0.00 0.00 93 1021.5
20260508021503 25 117 0.0 0.0 0.00 0.00 0.00 93 1021.0
20260508014504 26 117 0.0 0.0 0.00 0.00 0.00 92 1021.0
20260508013004 26 117 0.0 0.0 0.00 0.00 0.00 92 1020.9
20260508011503 27 117 0.0 0.0 0.00 0.00 0.00 92 1020.9
20260508010004 27 117 0.0 0.0 0.00 0.00 0.00 92 1020.8
20260508004504 27 117 0.0 0.0 0.00 0.00 0.00 92 1020.8
20260508003004 27 117 0.0 0.0 0.00 0.00 0.00 92 1020.7
20260508001503 28 117 0.0 0.0 0.00 0.00 0.00 92 1020.4
20260508000004 28 117 0.0 0.0 0.00 0.00 0.00 92 1020.3
20260507233003 29 117 0.0 0.0 0.00 0.00 0.00 91 1020.2
20260507231504 29 117 0.0 0.0 0.00 0.00 0.00 91 1019.8
20260507224504 30 117 0.0 0.0 0.00 0.00 0.00 90 1019.8
20260507221504 30 117 0.0 0.0 0.00 0.00 0.00 89 1019.3
20260507220004 30 117 0.0 0.0 0.00 0.00 0.00 89 1019.3
20260507213004 31 117 0.0 0.0 0.00 0.00 0.00 87 1018.9
20260507211504 32 117 0.0 0.0 0.00 0.00 0.00 86 1018.9
20260507210005 33 117 0.0 0.0 0.00 0.00 0.00 85 1018.9
20260507204504 34 117 0.0 0.0 0.00 0.00 0.00 84 1018.5
20260507203004 34 117 0.0 0.0 0.00 0.00 0.00 83 1018.5
20260507201504 35 117 0.0 0.0 0.00 0.00 0.00 81 1018.2
20260507200004 36 117 0.0 0.0 0.00 0.00 0.00 79 1018.2
20260507194504 37 117 0.0 0.0 0.00 0.00 0.00 77 1018.0
20260507193003 39 117 0.0 0.0 0.00 0.00 0.00 74 1017.7
20260507191503 40 117 0.0 1.0 0.00 0.00 0.00 71 1017.7
20260507190005 42 117 1.0 3.0 0.00 0.00 0.00 66 1017.3
20260507181504 49 114 1.0 7.0 0.00 0.00 0.00 48 1016.8
20260507180004 50 111 3.0 7.0 0.00 0.00 0.00 45 1016.8
20260507173004 52 114 2.0 7.0 0.00 0.00 0.00 43 1016.4
20260507171504 52 111 1.0 9.0 0.00 0.00 0.00 42 1016.4
20260507170005 53 109 3.0 10.0 0.00 0.00 0.00 34 1016.2
20260507164504 54 121 1.0 10.0 0.00 0.00 0.00 24 1016.1
20260507163003 54 117 5.0 9.0 0.00 0.00 0.00 23 1015.9
20260507161504 54 120 3.0 10.0 0.00 0.00 0.00 28 1015.9
20260507154504 55 116 4.0 9.0 0.00 0.00 0.00 29 1015.7